| time (UTC) | temp F | wind direction | speed knots | gust knots | rain 1hr in | rain 24hr in | rain mn in | humidity % | barometer mb |
| 20260906052024 | 74 | 40 | 1.7 | 6.1 | 0.00 | 0.00 | 0.00 | 84 | 1014.9 |
| 20260906051003 | 74 | 28 | 2.6 | 6.1 | 0.00 | 0.00 | 0.00 | 84 | 1014.9 |
| 20260906050003 | 74 | 25 | 2.6 | 5.2 | 0.00 | 0.00 | 0.00 | 84 | 1015.0 |
| 20260906045003 | 74 | 30 | 2.6 | 7.8 | 0.00 | 0.00 | 0.00 | 84 | 1014.9 |
| 20260906044003 | 74 | 49 | 0.9 | 5.2 | 0.00 | 0.00 | 0.00 | 84 | 1014.9 |
| 20260906043003 | 75 | 23 | 2.6 | 7.0 | 0.00 | 0.00 | 0.00 | 84 | 1014.8 |
| 20260906042003 | 75 | 20 | 1.7 | 7.0 | 0.00 | 0.00 | 0.00 | 84 | 1014.8 |
| 20260906041024 | 75 | 31 | 2.6 | 6.1 | 0.00 | 0.00 | 0.00 | 83 | 1014.8 |
| 20260906040025 | 75 | 29 | 1.7 | 7.0 | 0.00 | 0.00 | 0.00 | 84 | 1014.7 |
| 20260906035024 | 75 | 49 | 1.7 | 7.0 | 0.00 | 0.00 | 0.00 | 84 | 1014.7 |
| 20260906034003 | 75 | 29 | 0.9 | 7.8 | 0.00 | 0.00 | 0.00 | 84 | 1014.7 |
| 20260906033024 | 76 | 35 | 1.7 | 7.0 | 0.00 | 0.00 | 0.00 | 84 | 1014.6 |
| 20260906032003 | 76 | 46 | 1.7 | 5.2 | 0.00 | 0.00 | 0.00 | 83 | 1014.5 |
| 20260906031003 | 76 | 70 | 1.7 | 7.8 | 0.00 | 0.00 | 0.00 | 83 | 1014.6 |
| 20260906030003 | 76 | 84 | 1.7 | 7.0 | 0.00 | 0.00 | 0.00 | 83 | 1014.4 |
| 20260906025003 | 76 | 41 | 2.6 | 10.4 | 0.00 | 0.00 | 0.00 | 83 | 1014.2 |
| 20260906024024 | 77 | 35 | 2.6 | 9.6 | 0.00 | 0.00 | 0.00 | 82 | 1014.2 |
| 20260906023003 | 78 | 60 | 2.6 | 11.3 | 0.00 | 0.00 | 0.00 | 82 | 1014.1 |
| 20260906022024 | 78 | 51 | 0.9 | 7.0 | 0.00 | 0.00 | 0.00 | 82 | 1013.9 |
| 20260906021003 | 78 | 25 | 2.6 | 8.7 | 0.00 | 0.00 | 0.00 | 82 | 1013.8 |
| 20260906020003 | 78 | 22 | 0.9 | 2.6 | 0.00 | 0.00 | 0.00 | 82 | 1013.7 |
| 20260906015004 | 78 | 356 | 1.7 | 6.1 | 0.00 | 0.00 | 0.00 | 82 | 1013.6 |
| 20260906014024 | 78 | 351 | 0.9 | 1.7 | 0.00 | 0.00 | 0.00 | 82 | 1013.5 |
| 20260906013003 | 78 | 335 | 0.0 | 1.7 | 0.00 | 0.00 | 0.00 | 81 | 1013.1 |
| 20260906012003 | 78 | 329 | 0.0 | 1.7 | 0.00 | 0.00 | 0.00 | 80 | 1013.0 |
| 20260906011003 | 78 | 0 | 0.0 | 0.0 | 0.00 | 0.00 | 0.00 | 80 | 1012.9 |
| 20260906010003 | 78 | 360 | 0.0 | 1.7 | 0.00 | 0.00 | 0.00 | 80 | 1012.8 |
| 20260906005003 | 78 | 354 | 0.0 | 1.7 | 0.00 | 0.00 | 0.00 | 79 | 1012.8 |
| 20260906004003 | 78 | 343 | 0.0 | 1.7 | 0.00 | 0.00 | 0.00 | 79 | 1012.6 |
| 20260906003003 | 78 | 0 | 0.0 | 0.0 | 0.00 | 0.00 | 0.00 | 79 | 1012.3 |
| 20260906002003 | 79 | 321 | 0.0 | 1.7 | 0.00 | 0.00 | 0.00 | 78 | 1012.3 |
| 20260906001024 | 80 | 337 | 0.9 | 1.7 | 0.00 | 0.00 | 0.00 | 77 | 1012.4 |
| 20260906000003 | 80 | 349 | 0.9 | 2.6 | 0.00 | 0.00 | 0.00 | 76 | 1012.4 |
| 20260905235024 | 81 | 339 | 0.9 | 2.6 | 0.00 | 0.00 | 0.00 | 76 | 1012.6 |
| 20260905234003 | 81 | 351 | 0.9 | 2.6 | 0.00 | 0.00 | 0.00 | 75 | 1012.6 |
| 20260905233003 | 82 | 351 | 0.9 | 1.7 | 0.00 | 0.00 | 0.00 | 73 | 1012.6 |
| 20260905232003 | 82 | 5 | 1.7 | 6.1 | 0.00 | 0.00 | 0.00 | 72 | 1012.6 |
| 20260905231003 | 83 | 2 | 1.7 | 4.3 | 0.00 | 0.00 | 0.00 | 71 | 1012.6 |
| 20260905230003 | 83 | 313 | 0.9 | 1.7 | 0.00 | 0.00 | 0.00 | 70 | 1012.2 |
| 20260905225024 | 83 | 282 | 0.9 | 2.6 | 0.00 | 0.00 | 0.00 | 70 | 1011.9 |
| 20260905224003 | 83 | 239 | 0.9 | 2.6 | 0.00 | 0.00 | 0.00 | 70 | 1011.6 |
| 20260905223003 | 83 | 233 | 0.9 | 2.6 | 0.00 | 0.00 | 0.00 | 69 | 1012.0 |
| 20260905222024 | 82 | 271 | 0.0 | 1.7 | 0.00 | 0.00 | 0.00 | 69 | 1012.2 |
| 20260905221003 | 82 | 248 | 0.0 | 1.7 | 0.00 | 0.00 | 0.00 | 68 | 1012.2 |
| 20260905220003 | 83 | 294 | 0.9 | 3.5 | 0.00 | 0.00 | 0.00 | 67 | 1011.8 |
| 20260905215003 | 83 | 242 | 1.7 | 3.5 | 0.00 | 0.00 | 0.00 | 70 | 1011.7 |
| 20260905214003 | 84 | 251 | 1.7 | 4.3 | 0.00 | 0.00 | 0.00 | 69 | 1012.1 |
| 20260905213003 | 85 | 288 | 1.7 | 6.1 | 0.00 | 0.00 | 0.00 | 70 | 1012.3 |
| 20260905212003 | 85 | 354 | 0.9 | 2.6 | 0.00 | 0.00 | 0.00 | 72 | 1011.8 |
| 20260905211003 | 85 | 352 | 0.9 | 2.6 | 0.00 | 0.00 | 0.00 | 72 | 1012.2 |
| 20260905210003 | 86 | 342 | 0.9 | 3.5 | 0.00 | 0.00 | 0.00 | 71 | 1011.9 |
| 20260905205003 | 87 | 346 | 1.7 | 3.5 | 0.00 | 0.00 | 0.00 | 69 | 1012.1 |
| 20260905204003 | 88 | 342 | 1.7 | 3.5 | 0.00 | 0.00 | 0.00 | 67 | 1012.3 |
| 20260905203003 | 89 | 289 | 0.9 | 2.6 | 0.00 | 0.00 | 0.00 | 65 | 1012.4 |
| 20260905202003 | 89 | 236 | 1.7 | 4.3 | 0.00 | 0.00 | 0.00 | 64 | 1012.2 |
| 20260905201003 | 90 | 276 | 1.7 | 5.2 | 0.00 | 0.00 | 0.00 | 63 | 1012.5 |
| 20260905200003 | 89 | 281 | 1.7 | 3.5 | 0.00 | 0.00 | 0.00 | 64 | 1012.5 |
| 20260905195024 | 89 | 304 | 1.7 | 6.1 | 0.00 | 0.00 | 0.00 | 62 | 1012.4 |
| 20260905194003 | 92 | 332 | 3.5 | 7.8 | 0.00 | 0.00 | 0.00 | 59 | 1012.5 |
| 20260905193024 | 92 | 241 | 1.7 | 7.0 | 0.00 | 0.00 | 0.00 | 58 | 1012.6 |
| 20260905192003 | 91 | 233 | 2.6 | 7.0 | 0.00 | 0.00 | 0.00 | 61 | 1012.8 |
| 20260905191004 | 89 | 225 | 2.6 | 7.0 | 0.00 | 0.00 | 0.00 | 61 | 1012.9 |
| 20260905190024 | 91 | 251 | 1.7 | 6.1 | 0.00 | 0.00 | 0.00 | 58 | 1012.9 |
| 20260905185003 | 90 | 239 | 2.6 | 6.1 | 0.00 | 0.00 | 0.00 | 59 | 1013.0 |
| 20260905184003 | 90 | 251 | 2.6 | 5.2 | 0.00 | 0.00 | 0.00 | 59 | 1013.2 |
| 20260905183003 | 90 | 223 | 2.6 | 6.1 | 0.00 | 0.00 | 0.00 | 61 | 1013.4 |
| 20260905182003 | 89 | 228 | 3.5 | 6.1 | 0.00 | 0.00 | 0.00 | 61 | 1013.6 |
| 20260905181003 | 89 | 228 | 2.6 | 7.8 | 0.00 | 0.00 | 0.00 | 60 | 1013.7 |
| 20260905180003 | 88 | 230 | 3.5 | 7.8 | 0.00 | 0.00 | 0.00 | 62 | 1013.7 |
| 20260905175003 | 88 | 228 | 2.6 | 4.3 | 0.00 | 0.00 | 0.00 | 61 | 1013.8 |
| 20260905174003 | 88 | 203 | 1.7 | 5.2 | 0.00 | 0.00 | 0.00 | 61 | 1013.9 |
| 20260905173003 | 88 | 226 | 3.5 | 8.7 | 0.00 | 0.00 | 0.00 | 60 | 1014.0 |
| 20260905172003 | 88 | 168 | 3.5 | 7.8 | 0.00 | 0.00 | 0.00 | 61 | 1014.0 |
| 20260905171003 | 87 | 150 | 4.3 | 10.4 | 0.00 | 0.00 | 0.00 | 60 | 1014.2 |
| 20260905170003 | 87 | 162 | 2.6 | 7.0 | 0.00 | 0.00 | 0.00 | 61 | 1014.4 |
| 20260905165003 | 86 | 153 | 3.5 | 7.0 | 0.00 | 0.00 | 0.00 | 62 | 1014.6 |
| 20260905164003 | 84 | 165 | 2.6 | 7.0 | 0.00 | 0.00 | 0.00 | 63 | 1014.7 |
| 20260905163024 | 84 | 142 | 3.5 | 7.0 | 0.00 | 0.00 | 0.00 | 63 | 1014.8 |
| 20260905162003 | 84 | 134 | 3.5 | 6.1 | 0.00 | 0.00 | 0.00 | 65 | 1014.9 |
| 20260905161003 | 84 | 170 | 3.5 | 8.7 | 0.00 | 0.00 | 0.00 | 64 | 1014.7 |
| 20260905160003 | 83 | 154 | 4.3 | 9.6 | 0.00 | 0.00 | 0.00 | 65 | 1014.6 |
| 20260905155003 | 83 | 154 | 6.1 | 12.2 | 0.00 | 0.00 | 0.00 | 65 | 1014.6 |
| 20260905154024 | 82 | 152 | 5.2 | 8.7 | 0.00 | 0.00 | 0.00 | 66 | 1014.6 |
| 20260905153003 | 82 | 145 | 4.3 | 9.6 | 0.00 | 0.00 | 0.00 | 64 | 1014.7 |
| 20260905152003 | 81 | 149 | 5.2 | 10.4 | 0.00 | 0.00 | 0.00 | 67 | 1014.6 |
| 20260905151003 | 81 | 165 | 5.2 | 11.3 | 0.00 | 0.00 | 0.00 | 66 | 1014.8 |
| 20260905150003 | 80 | 154 | 4.3 | 9.6 | 0.00 | 0.00 | 0.00 | 68 | 1014.9 |
| 20260905145003 | 79 | 157 | 5.2 | 11.3 | 0.00 | 0.00 | 0.00 | 68 | 1014.9 |
| 20260905144024 | 79 | 157 | 5.2 | 9.6 | 0.00 | 0.00 | 0.00 | 70 | 1014.8 |
| 20260905143003 | 78 | 148 | 7.0 | 13.0 | 0.00 | 0.00 | 0.00 | 71 | 1014.8 |
| 20260905142003 | 77 | 135 | 6.1 | 12.2 | 0.00 | 0.00 | 0.00 | 72 | 1014.9 |
| 20260905141003 | 77 | 137 | 5.2 | 10.4 | 0.00 | 0.00 | 0.00 | 74 | 1015.0 |
| 20260905140004 | 76 | 131 | 6.1 | 11.3 | 0.00 | 0.00 | 0.00 | 74 | 1015.0 |
| 20260905135003 | 76 | 131 | 6.1 | 10.4 | 0.00 | 0.00 | 0.00 | 75 | 1015.0 |
| 20260905134003 | 75 | 133 | 5.2 | 9.6 | 0.00 | 0.00 | 0.00 | 75 | 1015.1 |
| 20260905133003 | 75 | 135 | 5.2 | 10.4 | 0.00 | 0.00 | 0.00 | 76 | 1015.2 |
| 20260905132024 | 75 | 135 | 4.3 | 10.4 | 0.00 | 0.00 | 0.00 | 76 | 1015.2 |
| 20260905131003 | 75 | 126 | 5.2 | 11.3 | 0.00 | 0.00 | 0.00 | 77 | 1015.4 |
| 20260905130003 | 74 | 124 | 5.2 | 9.6 | 0.00 | 0.00 | 0.00 | 77 | 1015.2 |
| 20260905125003 | 74 | 141 | 4.3 | 8.7 | 0.00 | 0.00 | 0.00 | 78 | 1015.3 |
| 20260905124003 | 74 | 125 | 3.5 | 7.8 | 0.00 | 0.00 | 0.00 | 78 | 1015.0 |
| 20260905123003 | 73 | 131 | 4.3 | 7.0 | 0.00 | 0.00 | 0.00 | 79 | 1015.2 |
| 20260905122003 | 73 | 127 | 3.5 | 7.8 | 0.00 | 0.00 | 0.00 | 79 | 1015.2 |
| 20260905121003 | 73 | 112 | 3.5 | 7.8 | 0.00 | 0.00 | 0.00 | 79 | 1015.1 |
| 20260905120003 | 72 | 110 | 2.6 | 7.0 | 0.00 | 0.00 | 0.00 | 80 | 1015.1 |
| 20260905115024 | 72 | 100 | 1.7 | 4.3 | 0.00 | 0.00 | 0.00 | 81 | 1015.0 |
| 20260905114003 | 72 | 93 | 2.6 | 7.0 | 0.00 | 0.00 | 0.00 | 80 | 1014.9 |
| 20260905113024 | 73 | 92 | 2.6 | 7.8 | 0.00 | 0.00 | 0.00 | 80 | 1014.9 |
| 20260905112003 | 73 | 92 | 3.5 | 8.7 | 0.00 | 0.00 | 0.00 | 80 | 1014.8 |
| 20260905111003 | 73 | 88 | 2.6 | 8.7 | 0.00 | 0.00 | 0.00 | 82 | 1014.8 |
| 20260905110024 | 75 | 89 | 4.3 | 9.6 | 0.00 | 0.00 | 0.00 | 85 | 1014.6 |
| 20260905105003 | 74 | 83 | 1.7 | 7.0 | 0.00 | 0.00 | 0.00 | 90 | 1014.3 |
| 20260905104004 | 74 | 0 | 0.0 | 0.0 | 0.00 | 0.00 | 0.00 | 91 | 1013.7 |
| 20260905103004 | 73 | 0 | 0.0 | 0.0 | 0.00 | 0.00 | 0.00 | 90 | 1013.8 |
| 20260905102004 | 74 | 0 | 0.0 | 0.0 | 0.00 | 0.00 | 0.00 | 90 | 1013.8 |
| 20260905101025 | 74 | 0 | 0.0 | 0.0 | 0.00 | 0.00 | 0.00 | 90 | 1013.6 |
| 20260905100004 | 74 | 0 | 0.0 | 0.0 | 0.00 | 0.00 | 0.00 | 90 | 1013.6 |
| 20260905095004 | 74 | 0 | 0.0 | 0.0 | 0.00 | 0.00 | 0.00 | 90 | 1013.6 |
| 20260905094004 | 74 | 0 | 0.0 | 0.0 | 0.00 | 0.00 | 0.00 | 89 | 1013.6 |
| 20260905093004 | 74 | 0 | 0.0 | 0.0 | 0.00 | 0.00 | 0.00 | 89 | 1013.6 |
| 20260905092004 | 74 | 0 | 0.0 | 0.0 | 0.00 | 0.00 | 0.00 | 89 | 1013.5 |
| 20260905091004 | 75 | 0 | 0.0 | 0.0 | 0.00 | 0.00 | 0.00 | 89 | 1013.6 |
| 20260905090004 | 74 | 0 | 0.0 | 0.0 | 0.00 | 0.00 | 0.00 | 89 | 1013.5 |
| 20260905085004 | 74 | 0 | 0.0 | 0.0 | 0.00 | 0.00 | 0.00 | 89 | 1013.4 |
| 20260905084004 | 75 | 0 | 0.0 | 0.0 | 0.00 | 0.00 | 0.00 | 88 | 1013.6 |
| 20260905083025 | 75 | 0 | 0.0 | 0.0 | 0.00 | 0.00 | 0.00 | 89 | 1013.5 |
| 20260905082005 | 75 | 0 | 0.0 | 0.0 | 0.00 | 0.00 | 0.00 | 88 | 1013.4 |
| 20260905081004 | 76 | 0 | 0.0 | 0.0 | 0.00 | 0.00 | 0.00 | 88 | 1013.4 |
| 20260905080004 | 76 | 0 | 0.0 | 0.0 | 0.00 | 0.00 | 0.00 | 87 | 1013.2 |
| 20260905075004 | 76 | 0 | 0.0 | 0.0 | 0.00 | 0.00 | 0.00 | 87 | 1012.9 |
| 20260905074004 | 76 | 0 | 0.0 | 0.0 | 0.00 | 0.00 | 0.00 | 88 | 1012.9 |
| 20260905073004 | 76 | 0 | 0.0 | 0.0 | 0.00 | 0.00 | 0.00 | 89 | 1012.9 |
| 20260905072025 | 76 | 0 | 0.0 | 0.0 | 0.00 | 0.00 | 0.00 | 89 | 1012.9 |
| 20260905071004 | 76 | 0 | 0.0 | 0.0 | 0.00 | 0.00 | 0.00 | 89 | 1012.9 |
| 20260905070004 | 76 | 0 | 0.0 | 0.0 | 0.00 | 0.00 | 0.00 | 90 | 1013.0 |
| 20260905065004 | 76 | 0 | 0.0 | 0.0 | 0.00 | 0.00 | 0.00 | 90 | 1013.0 |
| 20260905064004 | 75 | 0 | 0.0 | 0.0 | 0.00 | 0.00 | 0.00 | 89 | 1013.1 |
| 20260905063004 | 76 | 0 | 0.0 | 0.0 | 0.00 | 0.00 | 0.00 | 89 | 1013.4 |
| 20260905062025 | 76 | 0 | 0.0 | 0.0 | 0.00 | 0.00 | 0.00 | 90 | 1013.6 |
| 20260905061004 | 75 | 0 | 0.0 | 0.0 | 0.00 | 0.00 | 0.00 | 90 | 1013.7 |
| 20260905060004 | 75 | 0 | 0.0 | 0.0 | 0.00 | 0.00 | 0.00 | 90 | 1013.8 |
| 20260905055004 | 76 | 0 | 0.0 | 0.0 | 0.00 | 0.00 | 0.00 | 90 | 1013.8 |
| 20260905054025 | 76 | 0 | 0.0 | 0.0 | 0.00 | 0.00 | 0.00 | 90 | 1013.9 |
| 20260905053004 | 76 | 0 | 0.0 | 0.0 | 0.00 | 0.00 | 0.00 | 90 | 1013.9 |